DW9750 Weather Reports


time (UTC)temp
C
wind
direction
speed
KPH
gust
KPH
rain 1hr
cm
rain 24hr
cm
rain mn
cm
humidity
%
barometer
mb
20260901030005 28 105 1.6 9.7 0.00 0.00 0.00 56 1012.2
20260901024504 29 79 4.8 9.7 0.00 0.00 0.00 54 1012.1
20260901023005 28 80 1.6 4.8 0.00 0.00 0.00 55 1011.9
20260901021508 28 85 0.0 3.2 0.00 0.00 0.00 55 1011.5
20260901020002 29 82 0.0 1.6 0.00 0.00 0.00 54 1011.4
20260901014503 30 73 0.0 3.2 0.00 0.00 0.00 53 1011.2
20260901013001 30 78 1.6 3.2 0.00 0.00 0.00 51 1011.3
20260901011502 31 74 1.6 6.4 0.00 0.00 0.00 50 1011.2
20260901010115 31 93 3.2 6.4 0.00 0.00 0.00 49 1011.0
20260901004600 32 108 3.2 9.7 0.00 0.00 0.00 47 1010.9
20260901003104 33 118 4.8 9.7 0.00 0.00 0.00 45 1010.8
20260901001559 33 76 4.8 11.3 0.00 0.00 0.00 44 1010.6
20260901000057 34 123 3.2 9.7 0.00 0.00 0.00 44 1010.6
20260831234558 34 99 3.2 11.3 0.00 0.00 0.00 41 1010.5
20260831233104 34 113 4.8 12.9 0.00 0.00 0.00 41 1010.5
20260831231558 35 210 4.8 11.3 0.00 0.00 0.00 40 1010.4
20260831230110 35 91 1.6 16.1 0.00 0.00 0.00 42 1010.6
20260831224554 35 109 4.8 12.9 0.00 0.00 0.00 40 1010.6
20260831223103 35 118 4.8 17.7 0.00 0.00 0.00 42 1010.7
20260831221556 35 130 6.4 17.7 0.00 0.00 0.00 42 1010.8
20260831220048 35 143 6.4 22.5 0.00 0.00 0.00 41 1011.1
20260831214553 36 110 3.2 12.9 0.00 0.00 0.00 40 1011.2
20260831213046 35 259 4.8 9.7 0.00 0.00 0.00 40 1011.4
20260831211542 35 132 6.4 14.5 0.00 0.00 0.00 43 1011.6
20260831210039 34 122 3.2 17.7 0.00 0.00 0.00 43 1011.9
20260831204538 35 162 3.2 12.9 0.00 0.00 0.00 43 1012.1
20260831203037 34 128 4.8 16.1 0.00 0.00 0.00 44 1012.3
20260831201534 34 180 4.8 14.5 0.00 0.00 0.00 45 1012.6
20260831200031 35 98 4.8 14.5 0.00 0.00 0.00 42 1012.8
20260831194528 35 271 3.2 12.9 0.00 0.00 0.00 46 1013.1
20260831193034 34 109 6.4 12.9 0.00 0.00 0.00 43 1013.4
20260831191529 35 167 6.4 22.5 0.00 0.00 0.00 44 1013.4
20260831190025 33 251 6.4 14.5 0.00 0.00 0.00 45 1013.4
20260831184521 33 133 4.8 16.1 0.00 0.00 0.00 45 1013.7
20260831183020 33 113 8.0 22.5 0.00 0.00 0.00 46 1013.8
20260831181519 33 154 6.4 14.5 0.00 0.00 0.00 48 1014.0
20260831180020 33 177 3.2 17.7 0.00 0.00 0.00 48 1014.1
20260831174517 33 73 6.4 12.9 0.00 0.00 0.00 49 1014.2
20260831173016 32 170 4.8 16.1 0.00 0.00 0.00 50 1014.3
20260831171513 32 189 8.0 16.1 0.00 0.00 0.00 51 1014.4
20260831170008 31 234 4.8 14.5 0.00 0.00 0.00 53 1014.4
20260831164559 31 162 3.2 12.9 0.00 0.00 0.00 53 1014.4
20260831163058 31 138 6.4 17.7 0.00 0.00 0.00 54 1014.6
20260831161556 30 253 6.4 12.9 0.00 0.00 0.00 58 1014.6
20260831160052 31 142 4.8 11.3 0.00 0.00 0.00 58 1014.6
20260831154552 30 122 4.8 12.9 0.00 0.00 0.00 62 1014.6
20260831153049 29 209 8.0 16.1 0.00 0.00 0.00 64 1014.5
20260831151544 28 207 4.8 16.1 0.00 0.00 0.00 68 1014.3
20260831150041 28 166 6.4 14.5 0.00 0.00 0.00 70 1014.2
20260831144538 27 134 3.2 12.9 0.00 0.00 0.00 73 1014.3
20260831143036 27 222 3.2 14.5 0.00 0.00 0.00 77 1014.2
20260831141537 26 191 3.2 9.7 0.00 0.00 0.00 81 1014.2
20260831140039 25 188 3.2 9.7 0.00 0.00 0.00 84 1014.1
20260831134537 25 158 1.6 8.0 0.00 0.00 0.00 86 1014.3
20260831133033 24 156 0.0 0.0 0.00 0.00 0.00 89 1014.2
20260831131530 23 162 0.0 0.0 0.00 0.00 0.00 92 1014.2
20260831130027 22 87 0.0 0.0 0.00 0.00 0.00 91 1014.1
20260831124526 22 87 0.0 0.0 0.00 0.00 0.00 90 1014.0
20260831123030 22 87 0.0 0.0 0.00 0.00 0.00 91 1013.9
20260831121532 22 90 0.0 0.0 0.00 0.00 0.00 91 1013.7
20260831120022 23 114 0.0 0.0 0.00 0.00 0.00 91 1013.5
20260831114520 23 114 0.0 0.0 0.00 0.00 0.00 90 1013.6
20260831113020 23 114 0.0 0.0 0.00 0.00 0.00 90 1013.6
20260831111518 23 114 0.0 0.0 0.00 0.00 0.00 89 1013.5
20260831110017 23 114 0.0 0.0 0.00 0.00 0.00 89 1013.6
20260831104522 23 114 0.0 0.0 0.00 0.00 0.00 87 1013.6
20260831103014 23 137 0.0 0.0 0.00 0.00 0.00 87 1013.6
20260831101513 23 116 0.0 0.0 0.00 0.00 0.00 87 1013.7
20260831100019 23 133 0.0 3.2 0.00 0.00 0.00 87 1013.8
20260831094513 23 144 0.0 0.0 0.00 0.00 0.00 86 1013.7
20260831093013 23 144 0.0 4.8 0.00 0.00 0.00 85 1013.7
20260831091510 24 164 0.0 1.6 0.00 0.00 0.00 84 1013.7
20260831090009 24 164 0.0 1.6 0.00 0.00 0.00 85 1013.6
20260831084508 24 164 0.0 0.0 0.00 0.00 0.00 84 1013.5
20260831083006 24 164 0.0 3.2 0.00 0.00 0.00 83 1013.5
20260831081505 24 106 0.0 3.2 0.00 0.00 0.00 82 1013.7
20260831080011 25 154 0.0 8.0 0.00 0.00 0.00 81 1013.7
20260831074501 25 172 0.0 6.4 0.00 0.00 0.00 80 1013.8
20260831073103 25 174 0.0 6.4 0.00 0.00 0.00 78 1013.9
20260831071558 25 194 0.0 3.2 0.00 0.00 0.00 76 1013.9
20260831070112 25 99 0.0 6.4 0.00 0.00 0.00 75 1013.8
20260831064554 26 94 1.6 11.3 0.00 0.00 0.00 73 1013.8
20260831063054 26 91 0.0 6.4 0.00 0.00 0.00 72 1013.9
20260831061551 26 106 3.2 9.7 0.00 0.00 0.00 71 1013.8
20260831060048 26 80 1.6 9.7 0.00 0.00 0.00 70 1013.6
20260831054545 26 81 1.6 6.4 0.00 0.00 0.00 69 1013.4
20260831053044 27 88 4.8 11.3 0.00 0.00 0.00 67 1013.2
20260831051544 27 109 3.2 12.9 0.00 0.00 0.00 66 1013.0
20260831050037 27 73 3.2 9.7 0.00 0.00 0.00 65 1012.9
20260831044547 28 80 6.4 12.9 0.00 0.00 0.00 64 1012.9
20260831043036 28 76 3.2 12.9 0.00 0.00 0.00 65 1012.9
20260831041547 28 105 4.8 11.3 0.00 0.00 0.00 65 1012.7
20260831040035 28 57 4.8 11.3 0.00 0.00 0.00 64 1012.6
20260831034534 28 94 3.2 9.7 0.00 0.00 0.00 63 1012.4
20260831033034 29 97 4.8 11.3 0.00 0.00 0.00 63 1012.3
20260831031534 29 64 4.8 12.9 0.00 0.00 0.00 62 1012.3